Flag for China

Past Weather in 22°59'15.1"N, 113°44'22.7"E, China — Yesterday and Last 2 Weeks

Now
72 °F

Light rain. Broken clouds.


Feels Like: 69 °F
Forecast: 85 / 74 °F
Wind: 8 mph from Northeast

Location: Canton Airport
Current Time: Sep 27, 2020 at 9:01:35 am
Latest Report: Sep 27, 2020 at 8:00 am
Visibility: N/A
Pressure29.89 "Hg
Humidity: 88%
Dew Point: 68 °F
Location of 22°59'15.1"N, 113°44'22.7"ELocation

Past Weather in 22°59'15.1"N, 113°44'22.7"E — Graph

°F

22°59'15.1"N, 113°44'22.7"E Temperature Yesterday

Maximum temperature yesterday: 84 °F (at 3:00 pm)
Minimum temperature yesterday: 73 °F (at 9:30 pm)
Average temperature yesterday: 78 °F

High & Low Weather Summary for the Past Weeks

 TemperatureHumidityPressure
High93 °F (Sep 17, 1:00 pm)94% (Sep 13, 3:30 pm)29.92 "Hg (Sep 13, 3:30 pm)
Low72 °F (Sep 27, 3:30 am)52% (Sep 20, 3:30 pm)29.65 "Hg (Sep 17, 4:00 pm)
Average81 °F79%29.82 "Hg
* Reported Sep 12 7:00 am — Sep 27 7:30 am, 22°59'15.1"N, 113°44'22.7"E. Weather by CustomWeather, © 2020

Note: Actual official high and low records may vary slightly from our data, if they occured in-between our weather recording intervals... More about our weather records

22°59'15.1"N, 113°44'22.7"E Weather History for the Previous 24 Hours

Scroll right to see more
 ConditionsComfort  
Time TempWeatherWind HumidityBarometerVisibility
7:30 am
Sun, Sep 27
72 °FBroken clouds.6 mph83%29.86 "HgN/A
7:00 am72 °FSprinkles. Broken clouds.6 mph83%29.86 "HgN/A
6:30 am72 °FSprinkles. Broken clouds.8 mph88%29.83 "HgN/A
6:00 am72 °FSprinkles. Partly cloudy.3 mph88%29.83 "HgN/A
5:30 am73 °FSprinkles. Partly cloudy.1 mph83%29.83 "HgN/A
5:00 am72 °FPartly cloudy.6 mph88%29.83 "HgN/A
4:30 am73 °FPartly cloudy.3 mph83%29.80 "HgN/A
4:00 am73 °FPartly cloudy.3 mph89%29.80 "HgN/A
3:30 am72 °FLight rain. Partly cloudy.3 mph88%29.80 "Hg6 mi
3:00 am73 °FPartly cloudy.3 mph89%29.83 "HgN/A
2:30 am73 °FLight rain. Passing clouds.6 mph89%29.83 "Hg6 mi
2:00 am73 °FLight rain. Passing clouds.3 mph89%29.83 "Hg5 mi
1:30 am73 °FPassing clouds.3 mph89%29.83 "HgN/A
1:00 am75 °FPassing clouds.3 mph83%29.86 "HgN/A
12:30 am75 °FPassing clouds.6 mph83%29.86 "HgN/A
12:00 am75 °FPassing clouds.6 mph83%29.86 "HgN/A
11:30 pm
Sat, Sep 26
73 °FSprinkles. Passing clouds.8 mph94%29.86 "Hg4 mi
11:00 pm73 °FRain showers. Passing clouds.3 mph89%29.86 "Hg3 mi
10:30 pm73 °FRain showers. Partly cloudy.3 mph89%29.89 "Hg3 mi
10:00 pm73 °FRain showers. Partly cloudy.3 mph89%29.86 "Hg3 mi
9:30 pm73 °FRain showers. Partly cloudy.6 mph89%29.86 "Hg3 mi
9:00 pm77 °FRain showers. Partly cloudy.6 mph83%29.86 "Hg3 mi
8:30 pm77 °FRain showers. Partly cloudy.3 mph83%29.83 "Hg3 mi
8:00 pm77 °FSprinkles. Partly cloudy.8 mph83%29.83 "Hg4 mi
7:30 pm77 °FSprinkles. Partly cloudy.6 mph89%29.80 "Hg4 mi
7:00 pm79 °FSprinkles. Partly cloudy.3 mph84%29.80 "Hg4 mi
6:30 pm79 °FSprinkles. Partly cloudy.3 mph84%29.80 "Hg4 mi
6:00 pm79 °FBroken clouds.6 mph84%29.77 "Hg4 mi
5:30 pm81 °FBroken clouds.3 mph74%29.77 "Hg5 mi
5:00 pm81 °FSprinkles. Partly sunny.3 mph74%29.77 "Hg5 mi
4:30 pm81 °FSprinkles. Partly sunny.6 mph74%29.77 "Hg5 mi
4:00 pm82 °FPartly sunny.6 mph70%29.74 "Hg5 mi
3:30 pm82 °FPartly sunny.6 mph70%29.74 "Hg5 mi
3:00 pm84 °FPartly sunny.6 mph66%29.74 "Hg5 mi
2:30 pm82 °FPartly sunny.6 mph74%29.77 "Hg5 mi
2:00 pm82 °FPartly sunny.3 mph70%29.77 "Hg5 mi
1:30 pm81 °FPartly sunny.3 mph74%29.77 "Hg5 mi
1:00 pm81 °FPartly sunny.3 mph74%29.80 "Hg5 mi
12:30 pm81 °FPartly sunny.3 mph74%29.80 "Hg5 mi
12:00 pm81 °FPartly sunny.6 mph70%29.83 "Hg5 mi
11:30 am82 °FPartly sunny.6 mph70%29.83 "Hg5 mi
11:00 am81 °FLight rain. Partly sunny.3 mph70%29.83 "Hg5 mi
10:30 am81 °FPartly sunny.6 mph70%29.83 "Hg6 mi
10:00 am79 °FPartly sunny.3 mph74%29.83 "Hg5 mi
9:30 am79 °FPartly sunny.3 mph74%29.83 "Hg5 mi
9:00 am79 °FPartly sunny.6 mph79%29.83 "Hg5 mi
Weather by CustomWeather, © 2020

See weather overview